Data supplied by UK-AIR on 27/11/2015
All Data GMT hour ending 
Status: R =Ratified P=Provisional,P*=As supplied
,,Cambridge Roadside,,,,,,,,,,,,,,,,,,,,,,,
Date,time,"Nitric oxide",status,unit,"Nitrogen dioxide",status,unit,"Nitrogen oxides as nitrogen dioxide",status,unit
 
01-01-2012,01:00,20.00000,R,ugm-3,27.00000,R,ugm-3,57.00000,R,ugm-3
01-01-2012,02:00,15.00000,R,ugm-3,25.00000,R,ugm-3,48.00000,R,ugm-3
01-01-2012,03:00,9.00000,R,ugm-3,19.00000,R,ugm-3,33.00000,R,ugm-3
01-01-2012,04:00,12.00000,R,ugm-3,19.00000,R,ugm-3,38.00000,R,ugm-3
01-01-2012,05:00,14.00000,R,ugm-3,23.00000,R,ugm-3,44.00000,R,ugm-3
01-01-2012,06:00,10.00000,R,ugm-3,19.00000,R,ugm-3,34.00000,R,ugm-3
01-01-2012,07:00,6.00000,R,ugm-3,10.00000,R,ugm-3,19.00000,R,ugm-3
01-01-2012,08:00,7.00000,R,ugm-3,11.00000,R,ugm-3,23.00000,R,ugm-3
01-01-2012,09:00,12.00000,R,ugm-3,25.00000,R,ugm-3,44.00000,R,ugm-3
01-01-2012,10:00,9.00000,R,ugm-3,15.00000,R,ugm-3,29.00000,R,ugm-3
01-01-2012,11:00,1.00000,R,ugm-3,10.00000,R,ugm-3,11.00000,R,ugm-3
01-01-2012,12:00,5.00000,R,ugm-3,11.00000,R,ugm-3,19.00000,R,ugm-3
01-01-2012,13:00,4.00000,R,ugm-3,11.00000,R,ugm-3,17.00000,R,ugm-3
01-01-2012,14:00,5.00000,R,ugm-3,13.00000,R,ugm-3,21.00000,R,ugm-3
01-01-2012,15:00,4.00000,R,ugm-3,13.00000,R,ugm-3,19.00000,R,ugm-3
01-01-2012,16:00,5.00000,R,ugm-3,19.00000,R,ugm-3,27.00000,R,ugm-3
01-01-2012,17:00,7.00000,R,ugm-3,23.00000,R,ugm-3,34.00000,R,ugm-3
01-01-2012,18:00,9.00000,R,ugm-3,27.00000,R,ugm-3,40.00000,R,ugm-3
01-01-2012,19:00,5.00000,R,ugm-3,25.00000,R,ugm-3,33.00000,R,ugm-3
01-01-2012,20:00,10.00000,R,ugm-3,25.00000,R,ugm-3,40.00000,R,ugm-3
01-01-2012,21:00,5.00000,R,ugm-3,17.00000,R,ugm-3,25.00000,R,ugm-3
01-01-2012,22:00,5.00000,R,ugm-3,15.00000,R,ugm-3,23.00000,R,ugm-3
01-01-2012,23:00,5.00000,R,ugm-3,15.00000,R,ugm-3,23.00000,R,ugm-3
01-01-2012,24:00,5.00000,R,ugm-3,15.00000,R,ugm-3,23.00000,R,ugm-3
02-01-2012,01:00,9.00000,R,ugm-3,19.00000,R,ugm-3,33.00000,R,ugm-3
02-01-2012,02:00,6.00000,R,ugm-3,15.00000,R,ugm-3,25.00000,R,ugm-3
02-01-2012,03:00,1.00000,R,ugm-3,10.00000,R,ugm-3,11.00000,R,ugm-3
02-01-2012,04:00,1.00000,R,ugm-3,10.00000,R,ugm-3,11.00000,R,ugm-3
02-01-2012,05:00,4.00000,R,ugm-3,11.00000,R,ugm-3,17.00000,R,ugm-3
02-01-2012,06:00,0.00000,R,ugm-3,6.00000,R,ugm-3,6.00000,R,ugm-3
02-01-2012,07:00,4.00000,R,ugm-3,11.00000,R,ugm-3,17.00000,R,ugm-3
02-01-2012,08:00,7.00000,R,ugm-3,19.00000,R,ugm-3,31.00000,R,ugm-3
02-01-2012,09:00,12.00000,R,ugm-3,27.00000,R,ugm-3,46.00000,R,ugm-3
02-01-2012,10:00,5.00000,R,ugm-3,15.00000,R,ugm-3,23.00000,R,ugm-3
02-01-2012,11:00,19.00000,R,ugm-3,21.00000,R,ugm-3,50.00000,R,ugm-3
02-01-2012,12:00,19.00000,R,ugm-3,27.00000,R,ugm-3,55.00000,R,ugm-3
02-01-2012,13:00,25.00000,R,ugm-3,31.00000,R,ugm-3,69.00000,R,ugm-3
02-01-2012,14:00,24.00000,R,ugm-3,31.00000,R,ugm-3,67.00000,R,ugm-3
02-01-2012,15:00,30.00000,R,ugm-3,34.00000,R,ugm-3,80.00000,R,ugm-3
02-01-2012,16:00,29.00000,R,ugm-3,31.00000,R,ugm-3,75.00000,R,ugm-3
02-01-2012,17:00,36.00000,R,ugm-3,34.00000,R,ugm-3,90.00000,R,ugm-3
02-01-2012,18:00,50.00000,R,ugm-3,46.00000,R,ugm-3,122.00000,R,ugm-3
02-01-2012,19:00,31.00000,R,ugm-3,40.00000,R,ugm-3,88.00000,R,ugm-3
02-01-2012,20:00,25.00000,R,ugm-3,27.00000,R,ugm-3,65.00000,R,ugm-3
02-01-2012,21:00,11.00000,R,ugm-3,31.00000,R,ugm-3,48.00000,R,ugm-3
02-01-2012,22:00,14.00000,R,ugm-3,25.00000,R,ugm-3,46.00000,R,ugm-3
02-01-2012,23:00,10.00000,R,ugm-3,21.00000,R,ugm-3,36.00000,R,ugm-3
02-01-2012,24:00,11.00000,R,ugm-3,15.00000,R,ugm-3,33.00000,R,ugm-3
03-01-2012,01:00,14.00000,R,ugm-3,19.00000,R,ugm-3,40.00000,R,ugm-3
03-01-2012,02:00,7.00000,R,ugm-3,19.00000,R,ugm-3,31.00000,R,ugm-3
03-01-2012,03:00,4.00000,R,ugm-3,10.00000,R,ugm-3,15.00000,R,ugm-3
03-01-2012,04:00,1.00000,R,ugm-3,8.00000,R,ugm-3,10.00000,R,ugm-3
03-01-2012,05:00,1.00000,R,ugm-3,6.00000,R,ugm-3,8.00000,R,ugm-3
03-01-2012,06:00,0.00000,R,ugm-3,4.00000,R,ugm-3,4.00000,R,ugm-3
03-01-2012,07:00,2.00000,R,ugm-3,8.00000,R,ugm-3,11.00000,R,ugm-3
03-01-2012,08:00,11.00000,R,ugm-3,13.00000,R,ugm-3,31.00000,R,ugm-3
03-01-2012,09:00,16.00000,R,ugm-3,21.00000,R,ugm-3,46.00000,R,ugm-3
03-01-2012,10:00,37.00000,R,ugm-3,31.00000,R,ugm-3,88.00000,R,ugm-3
03-01-2012,11:00,22.00000,R,ugm-3,23.00000,R,ugm-3,57.00000,R,ugm-3
03-01-2012,12:00,29.00000,R,ugm-3,25.00000,R,ugm-3,69.00000,R,ugm-3
03-01-2012,13:00,35.00000,R,ugm-3,29.00000,R,ugm-3,82.00000,R,ugm-3
03-01-2012,14:00,49.00000,R,ugm-3,46.00000,R,ugm-3,120.00000,R,ugm-3
03-01-2012,15:00,45.00000,R,ugm-3,33.00000,R,ugm-3,101.00000,R,ugm-3
03-01-2012,16:00,39.00000,R,ugm-3,33.00000,R,ugm-3,92.00000,R,ugm-3
03-01-2012,17:00,34.00000,R,ugm-3,31.00000,R,ugm-3,82.00000,R,ugm-3
03-01-2012,18:00,50.00000,R,ugm-3,38.00000,R,ugm-3,115.00000,R,ugm-3
03-01-2012,19:00,40.00000,R,ugm-3,31.00000,R,ugm-3,92.00000,R,ugm-3
03-01-2012,20:00,31.00000,R,ugm-3,33.00000,R,ugm-3,80.00000,R,ugm-3
03-01-2012,21:00,27.00000,R,ugm-3,25.00000,R,ugm-3,67.00000,R,ugm-3
03-01-2012,22:00,15.00000,R,ugm-3,27.00000,R,ugm-3,50.00000,R,ugm-3
03-01-2012,23:00,9.00000,R,ugm-3,17.00000,R,ugm-3,31.00000,R,ugm-3
03-01-2012,24:00,10.00000,R,ugm-3,13.00000,R,ugm-3,29.00000,R,ugm-3
04-01-2012,01:00,7.00000,R,ugm-3,15.00000,R,ugm-3,27.00000,R,ugm-3
04-01-2012,02:00,2.00000,R,ugm-3,10.00000,R,ugm-3,13.00000,R,ugm-3
04-01-2012,03:00,1.00000,R,ugm-3,8.00000,R,ugm-3,10.00000,R,ugm-3
04-01-2012,04:00,1.00000,R,ugm-3,8.00000,R,ugm-3,10.00000,R,ugm-3
04-01-2012,05:00,2.00000,R,ugm-3,10.00000,R,ugm-3,13.00000,R,ugm-3
04-01-2012,06:00,2.00000,R,ugm-3,11.00000,R,ugm-3,15.00000,R,ugm-3
04-01-2012,07:00,7.00000,R,ugm-3,27.00000,R,ugm-3,38.00000,R,ugm-3
04-01-2012,08:00,32.00000,R,ugm-3,44.00000,R,ugm-3,94.00000,R,ugm-3
04-01-2012,09:00,39.00000,R,ugm-3,42.00000,R,ugm-3,101.00000,R,ugm-3
04-01-2012,10:00,52.00000,R,ugm-3,48.00000,R,ugm-3,128.00000,R,ugm-3
04-01-2012,11:00,49.00000,R,ugm-3,46.00000,R,ugm-3,120.00000,R,ugm-3
04-01-2012,12:00,,,,,,,,,
04-01-2012,13:00,44.00000,R,ugm-3,38.00000,R,ugm-3,105.00000,R,ugm-3
04-01-2012,14:00,45.00000,R,ugm-3,42.00000,R,ugm-3,111.00000,R,ugm-3
04-01-2012,15:00,64.00000,R,ugm-3,48.00000,R,ugm-3,145.00000,R,ugm-3
04-01-2012,16:00,56.00000,R,ugm-3,48.00000,R,ugm-3,134.00000,R,ugm-3
04-01-2012,17:00,57.00000,R,ugm-3,50.00000,R,ugm-3,138.00000,R,ugm-3
04-01-2012,18:00,67.00000,R,ugm-3,57.00000,R,ugm-3,161.00000,R,ugm-3
04-01-2012,19:00,84.00000,R,ugm-3,54.00000,R,ugm-3,182.00000,R,ugm-3
04-01-2012,20:00,36.00000,R,ugm-3,33.00000,R,ugm-3,88.00000,R,ugm-3
04-01-2012,21:00,25.00000,R,ugm-3,25.00000,R,ugm-3,63.00000,R,ugm-3
04-01-2012,22:00,14.00000,R,ugm-3,17.00000,R,ugm-3,38.00000,R,ugm-3
04-01-2012,23:00,6.00000,R,ugm-3,13.00000,R,ugm-3,23.00000,R,ugm-3
04-01-2012,24:00,6.00000,R,ugm-3,11.00000,R,ugm-3,21.00000,R,ugm-3
05-01-2012,01:00,5.00000,R,ugm-3,11.00000,R,ugm-3,19.00000,R,ugm-3
05-01-2012,02:00,2.00000,R,ugm-3,10.00000,R,ugm-3,13.00000,R,ugm-3
05-01-2012,03:00,2.00000,R,ugm-3,10.00000,R,ugm-3,13.00000,R,ugm-3
05-01-2012,04:00,1.00000,R,ugm-3,6.00000,R,ugm-3,8.00000,R,ugm-3
05-01-2012,05:00,1.00000,R,ugm-3,6.00000,R,ugm-3,8.00000,R,ugm-3
05-01-2012,06:00,1.00000,R,ugm-3,4.00000,R,ugm-3,6.00000,R,ugm-3
05-01-2012,07:00,1.00000,R,ugm-3,8.00000,R,ugm-3,10.00000,R,ugm-3
05-01-2012,08:00,35.00000,R,ugm-3,31.00000,R,ugm-3,84.00000,R,ugm-3
05-01-2012,09:00,26.00000,R,ugm-3,29.00000,R,ugm-3,69.00000,R,ugm-3
05-01-2012,10:00,35.00000,R,ugm-3,29.00000,R,ugm-3,82.00000,R,ugm-3
05-01-2012,11:00,37.00000,R,ugm-3,31.00000,R,ugm-3,88.00000,R,ugm-3
05-01-2012,12:00,40.00000,R,ugm-3,33.00000,R,ugm-3,94.00000,R,ugm-3
05-01-2012,13:00,39.00000,R,ugm-3,27.00000,R,ugm-3,86.00000,R,ugm-3
05-01-2012,14:00,35.00000,R,ugm-3,29.00000,R,ugm-3,82.00000,R,ugm-3
05-01-2012,15:00,60.00000,R,ugm-3,44.00000,R,ugm-3,136.00000,R,ugm-3
05-01-2012,16:00,50.00000,R,ugm-3,42.00000,R,ugm-3,119.00000,R,ugm-3
05-01-2012,17:00,60.00000,R,ugm-3,44.00000,R,ugm-3,136.00000,R,ugm-3
05-01-2012,18:00,76.00000,R,ugm-3,54.00000,R,ugm-3,170.00000,R,ugm-3
05-01-2012,19:00,69.00000,R,ugm-3,54.00000,R,ugm-3,159.00000,R,ugm-3
05-01-2012,20:00,60.00000,R,ugm-3,46.00000,R,ugm-3,138.00000,R,ugm-3
05-01-2012,21:00,27.00000,R,ugm-3,33.00000,R,ugm-3,75.00000,R,ugm-3
05-01-2012,22:00,21.00000,R,ugm-3,33.00000,R,ugm-3,65.00000,R,ugm-3
05-01-2012,23:00,27.00000,R,ugm-3,34.00000,R,ugm-3,77.00000,R,ugm-3
05-01-2012,24:00,22.00000,R,ugm-3,29.00000,R,ugm-3,63.00000,R,ugm-3
06-01-2012,01:00,24.00000,R,ugm-3,29.00000,R,ugm-3,65.00000,R,ugm-3
06-01-2012,02:00,7.00000,R,ugm-3,17.00000,R,ugm-3,29.00000,R,ugm-3
06-01-2012,03:00,7.00000,R,ugm-3,21.00000,R,ugm-3,33.00000,R,ugm-3
06-01-2012,04:00,5.00000,R,ugm-3,17.00000,R,ugm-3,25.00000,R,ugm-3
06-01-2012,05:00,11.00000,R,ugm-3,25.00000,R,ugm-3,42.00000,R,ugm-3
06-01-2012,06:00,5.00000,R,ugm-3,17.00000,R,ugm-3,25.00000,R,ugm-3
06-01-2012,07:00,10.00000,R,ugm-3,27.00000,R,ugm-3,42.00000,R,ugm-3
06-01-2012,08:00,37.00000,R,ugm-3,42.00000,R,ugm-3,99.00000,R,ugm-3
06-01-2012,09:00,79.00000,R,ugm-3,54.00000,R,ugm-3,174.00000,R,ugm-3
06-01-2012,10:00,141.00000,R,ugm-3,67.00000,R,ugm-3,283.00000,R,ugm-3
06-01-2012,11:00,130.00000,R,ugm-3,69.00000,R,ugm-3,268.00000,R,ugm-3
06-01-2012,12:00,102.00000,R,ugm-3,61.00000,R,ugm-3,218.00000,R,ugm-3
06-01-2012,13:00,104.00000,R,ugm-3,65.00000,R,ugm-3,224.00000,R,ugm-3
06-01-2012,14:00,90.00000,R,ugm-3,57.00000,R,ugm-3,195.00000,R,ugm-3
06-01-2012,15:00,126.00000,R,ugm-3,57.00000,R,ugm-3,251.00000,R,ugm-3
06-01-2012,16:00,133.00000,R,ugm-3,65.00000,R,ugm-3,270.00000,R,ugm-3
06-01-2012,17:00,177.00000,R,ugm-3,63.00000,R,ugm-3,335.00000,R,ugm-3
06-01-2012,18:00,141.00000,R,ugm-3,67.00000,R,ugm-3,283.00000,R,ugm-3
06-01-2012,19:00,125.00000,R,ugm-3,61.00000,R,ugm-3,252.00000,R,ugm-3
06-01-2012,20:00,86.00000,R,ugm-3,52.00000,R,ugm-3,184.00000,R,ugm-3
06-01-2012,21:00,35.00000,R,ugm-3,38.00000,R,ugm-3,92.00000,R,ugm-3
06-01-2012,22:00,24.00000,R,ugm-3,40.00000,R,ugm-3,77.00000,R,ugm-3
06-01-2012,23:00,19.00000,R,ugm-3,29.00000,R,ugm-3,57.00000,R,ugm-3
06-01-2012,24:00,15.00000,R,ugm-3,23.00000,R,ugm-3,46.00000,R,ugm-3
07-01-2012,01:00,19.00000,R,ugm-3,23.00000,R,ugm-3,52.00000,R,ugm-3
07-01-2012,02:00,12.00000,R,ugm-3,21.00000,R,ugm-3,40.00000,R,ugm-3
07-01-2012,03:00,11.00000,R,ugm-3,25.00000,R,ugm-3,42.00000,R,ugm-3
07-01-2012,04:00,14.00000,R,ugm-3,23.00000,R,ugm-3,44.00000,R,ugm-3
07-01-2012,05:00,10.00000,R,ugm-3,19.00000,R,ugm-3,34.00000,R,ugm-3
07-01-2012,06:00,5.00000,R,ugm-3,17.00000,R,ugm-3,25.00000,R,ugm-3
07-01-2012,07:00,6.00000,R,ugm-3,13.00000,R,ugm-3,23.00000,R,ugm-3
07-01-2012,08:00,14.00000,R,ugm-3,27.00000,R,ugm-3,48.00000,R,ugm-3
07-01-2012,09:00,24.00000,R,ugm-3,38.00000,R,ugm-3,75.00000,R,ugm-3
07-01-2012,10:00,44.00000,R,ugm-3,38.00000,R,ugm-3,105.00000,R,ugm-3
07-01-2012,11:00,51.00000,R,ugm-3,40.00000,R,ugm-3,119.00000,R,ugm-3
07-01-2012,12:00,44.00000,R,ugm-3,40.00000,R,ugm-3,107.00000,R,ugm-3
07-01-2012,13:00,41.00000,R,ugm-3,36.00000,R,ugm-3,99.00000,R,ugm-3
07-01-2012,14:00,54.00000,R,ugm-3,42.00000,R,ugm-3,124.00000,R,ugm-3
07-01-2012,15:00,60.00000,R,ugm-3,44.00000,R,ugm-3,136.00000,R,ugm-3
07-01-2012,16:00,70.00000,R,ugm-3,48.00000,R,ugm-3,155.00000,R,ugm-3
07-01-2012,17:00,75.00000,R,ugm-3,54.00000,R,ugm-3,168.00000,R,ugm-3
07-01-2012,18:00,87.00000,R,ugm-3,52.00000,R,ugm-3,186.00000,R,ugm-3
07-01-2012,19:00,71.00000,R,ugm-3,42.00000,R,ugm-3,151.00000,R,ugm-3
07-01-2012,20:00,60.00000,R,ugm-3,40.00000,R,ugm-3,132.00000,R,ugm-3
07-01-2012,21:00,34.00000,R,ugm-3,38.00000,R,ugm-3,90.00000,R,ugm-3
07-01-2012,22:00,29.00000,R,ugm-3,42.00000,R,ugm-3,86.00000,R,ugm-3
07-01-2012,23:00,42.00000,R,ugm-3,48.00000,R,ugm-3,113.00000,R,ugm-3
07-01-2012,24:00,37.00000,R,ugm-3,46.00000,R,ugm-3,103.00000,R,ugm-3
08-01-2012,01:00,39.00000,R,ugm-3,40.00000,R,ugm-3,99.00000,R,ugm-3
08-01-2012,02:00,24.00000,R,ugm-3,40.00000,R,ugm-3,77.00000,R,ugm-3
08-01-2012,03:00,21.00000,R,ugm-3,34.00000,R,ugm-3,67.00000,R,ugm-3
08-01-2012,04:00,19.00000,R,ugm-3,33.00000,R,ugm-3,61.00000,R,ugm-3
08-01-2012,05:00,17.00000,R,ugm-3,31.00000,R,ugm-3,57.00000,R,ugm-3
08-01-2012,06:00,7.00000,R,ugm-3,17.00000,R,ugm-3,29.00000,R,ugm-3
08-01-2012,07:00,5.00000,R,ugm-3,17.00000,R,ugm-3,25.00000,R,ugm-3
08-01-2012,08:00,6.00000,R,ugm-3,17.00000,R,ugm-3,27.00000,R,ugm-3
08-01-2012,09:00,7.00000,R,ugm-3,21.00000,R,ugm-3,33.00000,R,ugm-3
08-01-2012,10:00,5.00000,R,ugm-3,21.00000,R,ugm-3,29.00000,R,ugm-3
08-01-2012,11:00,22.00000,R,ugm-3,31.00000,R,ugm-3,65.00000,R,ugm-3
08-01-2012,12:00,30.00000,R,ugm-3,36.00000,R,ugm-3,82.00000,R,ugm-3
08-01-2012,13:00,35.00000,R,ugm-3,40.00000,R,ugm-3,94.00000,R,ugm-3
08-01-2012,14:00,36.00000,R,ugm-3,40.00000,R,ugm-3,96.00000,R,ugm-3
08-01-2012,15:00,34.00000,R,ugm-3,40.00000,R,ugm-3,92.00000,R,ugm-3
08-01-2012,16:00,60.00000,R,ugm-3,54.00000,R,ugm-3,145.00000,R,ugm-3
08-01-2012,17:00,74.00000,R,ugm-3,54.00000,R,ugm-3,166.00000,R,ugm-3
08-01-2012,18:00,102.00000,R,ugm-3,67.00000,R,ugm-3,224.00000,R,ugm-3
08-01-2012,19:00,86.00000,R,ugm-3,50.00000,R,ugm-3,182.00000,R,ugm-3
08-01-2012,20:00,36.00000,R,ugm-3,40.00000,R,ugm-3,96.00000,R,ugm-3
08-01-2012,21:00,29.00000,R,ugm-3,42.00000,R,ugm-3,86.00000,R,ugm-3
08-01-2012,22:00,25.00000,R,ugm-3,34.00000,R,ugm-3,73.00000,R,ugm-3
08-01-2012,23:00,20.00000,R,ugm-3,34.00000,R,ugm-3,65.00000,R,ugm-3
08-01-2012,24:00,15.00000,R,ugm-3,31.00000,R,ugm-3,54.00000,R,ugm-3
09-01-2012,01:00,15.00000,R,ugm-3,31.00000,R,ugm-3,54.00000,R,ugm-3
09-01-2012,02:00,6.00000,R,ugm-3,17.00000,R,ugm-3,27.00000,R,ugm-3
09-01-2012,03:00,5.00000,R,ugm-3,19.00000,R,ugm-3,27.00000,R,ugm-3
09-01-2012,04:00,6.00000,R,ugm-3,21.00000,R,ugm-3,31.00000,R,ugm-3
09-01-2012,05:00,5.00000,R,ugm-3,21.00000,R,ugm-3,29.00000,R,ugm-3
09-01-2012,06:00,4.00000,R,ugm-3,23.00000,R,ugm-3,29.00000,R,ugm-3
09-01-2012,07:00,2.00000,R,ugm-3,15.00000,R,ugm-3,19.00000,R,ugm-3
09-01-2012,08:00,31.00000,R,ugm-3,33.00000,R,ugm-3,80.00000,R,ugm-3
09-01-2012,09:00,81.00000,R,ugm-3,44.00000,R,ugm-3,168.00000,R,ugm-3
09-01-2012,10:00,126.00000,R,ugm-3,59.00000,R,ugm-3,252.00000,R,ugm-3
09-01-2012,11:00,91.00000,R,ugm-3,55.00000,R,ugm-3,195.00000,R,ugm-3
09-01-2012,12:00,70.00000,R,ugm-3,44.00000,R,ugm-3,151.00000,R,ugm-3
09-01-2012,13:00,81.00000,R,ugm-3,55.00000,R,ugm-3,180.00000,R,ugm-3
09-01-2012,14:00,69.00000,R,ugm-3,48.00000,R,ugm-3,153.00000,R,ugm-3
09-01-2012,15:00,71.00000,R,ugm-3,52.00000,R,ugm-3,161.00000,R,ugm-3
09-01-2012,16:00,76.00000,R,ugm-3,46.00000,R,ugm-3,163.00000,R,ugm-3
09-01-2012,17:00,115.00000,R,ugm-3,54.00000,R,ugm-3,230.00000,R,ugm-3
09-01-2012,18:00,114.00000,R,ugm-3,63.00000,R,ugm-3,237.00000,R,ugm-3
09-01-2012,19:00,128.00000,R,ugm-3,65.00000,R,ugm-3,262.00000,R,ugm-3
09-01-2012,20:00,90.00000,R,ugm-3,54.00000,R,ugm-3,191.00000,R,ugm-3
09-01-2012,21:00,84.00000,R,ugm-3,57.00000,R,ugm-3,186.00000,R,ugm-3
09-01-2012,22:00,54.00000,R,ugm-3,57.00000,R,ugm-3,140.00000,R,ugm-3
09-01-2012,23:00,49.00000,R,ugm-3,54.00000,R,ugm-3,128.00000,R,ugm-3
09-01-2012,24:00,37.00000,R,ugm-3,50.00000,R,ugm-3,107.00000,R,ugm-3
10-01-2012,01:00,31.00000,R,ugm-3,54.00000,R,ugm-3,101.00000,R,ugm-3
10-01-2012,02:00,6.00000,R,ugm-3,31.00000,R,ugm-3,40.00000,R,ugm-3
10-01-2012,03:00,7.00000,R,ugm-3,34.00000,R,ugm-3,46.00000,R,ugm-3
10-01-2012,04:00,9.00000,R,ugm-3,34.00000,R,ugm-3,48.00000,R,ugm-3
10-01-2012,05:00,9.00000,R,ugm-3,33.00000,R,ugm-3,46.00000,R,ugm-3
10-01-2012,06:00,7.00000,R,ugm-3,25.00000,R,ugm-3,36.00000,R,ugm-3
10-01-2012,07:00,7.00000,R,ugm-3,25.00000,R,ugm-3,36.00000,R,ugm-3
10-01-2012,08:00,31.00000,R,ugm-3,36.00000,R,ugm-3,84.00000,R,ugm-3
10-01-2012,09:00,112.00000,R,ugm-3,57.00000,R,ugm-3,230.00000,R,ugm-3
10-01-2012,10:00,115.00000,R,ugm-3,69.00000,R,ugm-3,245.00000,R,ugm-3
10-01-2012,11:00,122.00000,R,ugm-3,67.00000,R,ugm-3,254.00000,R,ugm-3
10-01-2012,12:00,117.00000,R,ugm-3,61.00000,R,ugm-3,241.00000,R,ugm-3
10-01-2012,13:00,66.00000,R,ugm-3,46.00000,R,ugm-3,147.00000,R,ugm-3
10-01-2012,14:00,60.00000,R,ugm-3,46.00000,R,ugm-3,138.00000,R,ugm-3
10-01-2012,15:00,75.00000,R,ugm-3,52.00000,R,ugm-3,166.00000,R,ugm-3
10-01-2012,16:00,86.00000,R,ugm-3,52.00000,R,ugm-3,184.00000,R,ugm-3
10-01-2012,17:00,110.00000,R,ugm-3,63.00000,R,ugm-3,231.00000,R,ugm-3
10-01-2012,18:00,140.00000,R,ugm-3,63.00000,R,ugm-3,277.00000,R,ugm-3
10-01-2012,19:00,126.00000,R,ugm-3,59.00000,R,ugm-3,252.00000,R,ugm-3
10-01-2012,20:00,99.00000,R,ugm-3,54.00000,R,ugm-3,205.00000,R,ugm-3
10-01-2012,21:00,55.00000,R,ugm-3,52.00000,R,ugm-3,136.00000,R,ugm-3
10-01-2012,22:00,31.00000,R,ugm-3,46.00000,R,ugm-3,94.00000,R,ugm-3
10-01-2012,23:00,24.00000,R,ugm-3,33.00000,R,ugm-3,69.00000,R,ugm-3
10-01-2012,24:00,19.00000,R,ugm-3,31.00000,R,ugm-3,59.00000,R,ugm-3
11-01-2012,01:00,7.00000,R,ugm-3,11.00000,R,ugm-3,23.00000,R,ugm-3
11-01-2012,02:00,4.00000,R,ugm-3,11.00000,R,ugm-3,17.00000,R,ugm-3
11-01-2012,03:00,2.00000,R,ugm-3,11.00000,R,ugm-3,15.00000,R,ugm-3
11-01-2012,04:00,4.00000,R,ugm-3,8.00000,R,ugm-3,13.00000,R,ugm-3
11-01-2012,05:00,2.00000,R,ugm-3,10.00000,R,ugm-3,13.00000,R,ugm-3
11-01-2012,06:00,1.00000,R,ugm-3,6.00000,R,ugm-3,8.00000,R,ugm-3
11-01-2012,07:00,1.00000,R,ugm-3,10.00000,R,ugm-3,11.00000,R,ugm-3
11-01-2012,08:00,19.00000,R,ugm-3,17.00000,R,ugm-3,46.00000,R,ugm-3
11-01-2012,09:00,54.00000,R,ugm-3,25.00000,R,ugm-3,107.00000,R,ugm-3
11-01-2012,10:00,57.00000,R,ugm-3,27.00000,R,ugm-3,115.00000,R,ugm-3
11-01-2012,11:00,47.00000,R,ugm-3,29.00000,R,ugm-3,101.00000,R,ugm-3
11-01-2012,12:00,,,,,,,,,
11-01-2012,13:00,,,,,,,,,
11-01-2012,14:00,,,,,,,,,
11-01-2012,15:00,81.00000,R,ugm-3,54.00000,R,ugm-3,178.00000,R,ugm-3
11-01-2012,16:00,100.00000,R,ugm-3,59.00000,R,ugm-3,212.00000,R,ugm-3
11-01-2012,17:00,115.00000,R,ugm-3,65.00000,R,ugm-3,241.00000,R,ugm-3
11-01-2012,18:00,162.00000,R,ugm-3,65.00000,R,ugm-3,314.00000,R,ugm-3
11-01-2012,19:00,117.00000,R,ugm-3,57.00000,R,ugm-3,237.00000,R,ugm-3
11-01-2012,20:00,101.00000,R,ugm-3,55.00000,R,ugm-3,210.00000,R,ugm-3
11-01-2012,21:00,46.00000,R,ugm-3,38.00000,R,ugm-3,109.00000,R,ugm-3
11-01-2012,22:00,25.00000,R,ugm-3,34.00000,R,ugm-3,73.00000,R,ugm-3
11-01-2012,23:00,17.00000,R,ugm-3,25.00000,R,ugm-3,52.00000,R,ugm-3
11-01-2012,24:00,19.00000,R,ugm-3,29.00000,R,ugm-3,57.00000,R,ugm-3
12-01-2012,01:00,14.00000,R,ugm-3,25.00000,R,ugm-3,46.00000,R,ugm-3
12-01-2012,02:00,5.00000,R,ugm-3,17.00000,R,ugm-3,25.00000,R,ugm-3
12-01-2012,03:00,4.00000,R,ugm-3,13.00000,R,ugm-3,19.00000,R,ugm-3
12-01-2012,04:00,4.00000,R,ugm-3,11.00000,R,ugm-3,17.00000,R,ugm-3
12-01-2012,05:00,4.00000,R,ugm-3,10.00000,R,ugm-3,15.00000,R,ugm-3
12-01-2012,06:00,1.00000,R,ugm-3,8.00000,R,ugm-3,10.00000,R,ugm-3
12-01-2012,07:00,4.00000,R,ugm-3,11.00000,R,ugm-3,17.00000,R,ugm-3
12-01-2012,08:00,25.00000,R,ugm-3,27.00000,R,ugm-3,65.00000,R,ugm-3
12-01-2012,09:00,34.00000,R,ugm-3,33.00000,R,ugm-3,84.00000,R,ugm-3
12-01-2012,10:00,42.00000,R,ugm-3,42.00000,R,ugm-3,107.00000,R,ugm-3
12-01-2012,11:00,56.00000,R,ugm-3,40.00000,R,ugm-3,126.00000,R,ugm-3
12-01-2012,12:00,59.00000,R,ugm-3,40.00000,R,ugm-3,130.00000,R,ugm-3
12-01-2012,13:00,67.00000,R,ugm-3,46.00000,R,ugm-3,149.00000,R,ugm-3
12-01-2012,14:00,54.00000,R,ugm-3,44.00000,R,ugm-3,126.00000,R,ugm-3
12-01-2012,15:00,79.00000,R,ugm-3,48.00000,R,ugm-3,168.00000,R,ugm-3
12-01-2012,16:00,85.00000,R,ugm-3,57.00000,R,ugm-3,187.00000,R,ugm-3
12-01-2012,17:00,95.00000,R,ugm-3,59.00000,R,ugm-3,205.00000,R,ugm-3
12-01-2012,18:00,112.00000,R,ugm-3,59.00000,R,ugm-3,231.00000,R,ugm-3
12-01-2012,19:00,110.00000,R,ugm-3,61.00000,R,ugm-3,230.00000,R,ugm-3
12-01-2012,20:00,104.00000,R,ugm-3,63.00000,R,ugm-3,222.00000,R,ugm-3
12-01-2012,21:00,62.00000,R,ugm-3,59.00000,R,ugm-3,155.00000,R,ugm-3
12-01-2012,22:00,46.00000,R,ugm-3,54.00000,R,ugm-3,124.00000,R,ugm-3
12-01-2012,23:00,46.00000,R,ugm-3,55.00000,R,ugm-3,126.00000,R,ugm-3
12-01-2012,24:00,55.00000,R,ugm-3,57.00000,R,ugm-3,142.00000,R,ugm-3
13-01-2012,01:00,45.00000,R,ugm-3,54.00000,R,ugm-3,122.00000,R,ugm-3
13-01-2012,02:00,22.00000,R,ugm-3,44.00000,R,ugm-3,78.00000,R,ugm-3
13-01-2012,03:00,12.00000,R,ugm-3,34.00000,R,ugm-3,54.00000,R,ugm-3
13-01-2012,04:00,7.00000,R,ugm-3,29.00000,R,ugm-3,40.00000,R,ugm-3
13-01-2012,05:00,11.00000,R,ugm-3,27.00000,R,ugm-3,44.00000,R,ugm-3
13-01-2012,06:00,14.00000,R,ugm-3,31.00000,R,ugm-3,52.00000,R,ugm-3
13-01-2012,07:00,11.00000,R,ugm-3,33.00000,R,ugm-3,50.00000,R,ugm-3
13-01-2012,08:00,102.00000,R,ugm-3,59.00000,R,ugm-3,216.00000,R,ugm-3
13-01-2012,09:00,176.00000,R,ugm-3,75.00000,R,ugm-3,344.00000,R,ugm-3
13-01-2012,10:00,182.00000,R,ugm-3,77.00000,R,ugm-3,356.00000,R,ugm-3
13-01-2012,11:00,182.00000,R,ugm-3,63.00000,R,ugm-3,342.00000,R,ugm-3
13-01-2012,12:00,160.00000,R,ugm-3,59.00000,R,ugm-3,304.00000,R,ugm-3
13-01-2012,13:00,91.00000,R,ugm-3,52.00000,R,ugm-3,191.00000,R,ugm-3
13-01-2012,14:00,59.00000,R,ugm-3,42.00000,R,ugm-3,132.00000,R,ugm-3
13-01-2012,15:00,44.00000,R,ugm-3,42.00000,R,ugm-3,109.00000,R,ugm-3
13-01-2012,16:00,65.00000,R,ugm-3,50.00000,R,ugm-3,149.00000,R,ugm-3
13-01-2012,17:00,85.00000,R,ugm-3,44.00000,R,ugm-3,174.00000,R,ugm-3
13-01-2012,18:00,151.00000,R,ugm-3,65.00000,R,ugm-3,296.00000,R,ugm-3
13-01-2012,19:00,202.00000,R,ugm-3,73.00000,R,ugm-3,383.00000,R,ugm-3
13-01-2012,20:00,207.00000,R,ugm-3,80.00000,R,ugm-3,398.00000,R,ugm-3
13-01-2012,21:00,190.00000,R,ugm-3,78.00000,R,ugm-3,369.00000,R,ugm-3
13-01-2012,22:00,112.00000,R,ugm-3,77.00000,R,ugm-3,249.00000,R,ugm-3
13-01-2012,23:00,143.00000,R,ugm-3,77.00000,R,ugm-3,296.00000,R,ugm-3
13-01-2012,24:00,186.00000,R,ugm-3,80.00000,R,ugm-3,365.00000,R,ugm-3
14-01-2012,01:00,138.00000,R,ugm-3,82.00000,R,ugm-3,295.00000,R,ugm-3
14-01-2012,02:00,127.00000,R,ugm-3,75.00000,R,ugm-3,270.00000,R,ugm-3
14-01-2012,03:00,112.00000,R,ugm-3,73.00000,R,ugm-3,245.00000,R,ugm-3
14-01-2012,04:00,117.00000,R,ugm-3,63.00000,R,ugm-3,243.00000,R,ugm-3
14-01-2012,05:00,89.00000,R,ugm-3,57.00000,R,ugm-3,193.00000,R,ugm-3
14-01-2012,06:00,62.00000,R,ugm-3,48.00000,R,ugm-3,143.00000,R,ugm-3
14-01-2012,07:00,67.00000,R,ugm-3,48.00000,R,ugm-3,151.00000,R,ugm-3
14-01-2012,08:00,123.00000,R,ugm-3,57.00000,R,ugm-3,247.00000,R,ugm-3
14-01-2012,09:00,165.00000,R,ugm-3,57.00000,R,ugm-3,310.00000,R,ugm-3
14-01-2012,10:00,292.00000,R,ugm-3,67.00000,R,ugm-3,514.00000,R,ugm-3
14-01-2012,11:00,273.00000,R,ugm-3,61.00000,R,ugm-3,480.00000,R,ugm-3
14-01-2012,12:00,303.00000,R,ugm-3,67.00000,R,ugm-3,532.00000,R,ugm-3
14-01-2012,13:00,192.00000,R,ugm-3,71.00000,R,ugm-3,365.00000,R,ugm-3
14-01-2012,14:00,127.00000,R,ugm-3,69.00000,R,ugm-3,264.00000,R,ugm-3
14-01-2012,15:00,107.00000,R,ugm-3,55.00000,R,ugm-3,220.00000,R,ugm-3
14-01-2012,16:00,106.00000,R,ugm-3,59.00000,R,ugm-3,222.00000,R,ugm-3
14-01-2012,17:00,140.00000,R,ugm-3,65.00000,R,ugm-3,279.00000,R,ugm-3
14-01-2012,18:00,171.00000,R,ugm-3,65.00000,R,ugm-3,327.00000,R,ugm-3
14-01-2012,19:00,268.00000,R,ugm-3,78.00000,R,ugm-3,490.00000,R,ugm-3
14-01-2012,20:00,273.00000,R,ugm-3,88.00000,R,ugm-3,507.00000,R,ugm-3
14-01-2012,21:00,248.00000,R,ugm-3,92.00000,R,ugm-3,472.00000,R,ugm-3
14-01-2012,22:00,152.00000,R,ugm-3,80.00000,R,ugm-3,314.00000,R,ugm-3
14-01-2012,23:00,163.00000,R,ugm-3,90.00000,R,ugm-3,340.00000,R,ugm-3
14-01-2012,24:00,150.00000,R,ugm-3,82.00000,R,ugm-3,312.00000,R,ugm-3
15-01-2012,01:00,109.00000,R,ugm-3,77.00000,R,ugm-3,243.00000,R,ugm-3
15-01-2012,02:00,111.00000,R,ugm-3,75.00000,R,ugm-3,245.00000,R,ugm-3
15-01-2012,03:00,102.00000,R,ugm-3,71.00000,R,ugm-3,228.00000,R,ugm-3
15-01-2012,04:00,102.00000,R,ugm-3,65.00000,R,ugm-3,222.00000,R,ugm-3
15-01-2012,05:00,91.00000,R,ugm-3,69.00000,R,ugm-3,208.00000,R,ugm-3
15-01-2012,06:00,61.00000,R,ugm-3,57.00000,R,ugm-3,151.00000,R,ugm-3
15-01-2012,07:00,19.00000,R,ugm-3,48.00000,R,ugm-3,77.00000,R,ugm-3
15-01-2012,08:00,17.00000,R,ugm-3,44.00000,R,ugm-3,71.00000,R,ugm-3
15-01-2012,09:00,14.00000,R,ugm-3,42.00000,R,ugm-3,63.00000,R,ugm-3
15-01-2012,10:00,14.00000,R,ugm-3,44.00000,R,ugm-3,65.00000,R,ugm-3
15-01-2012,11:00,26.00000,R,ugm-3,48.00000,R,ugm-3,88.00000,R,ugm-3
15-01-2012,12:00,21.00000,R,ugm-3,36.00000,R,ugm-3,69.00000,R,ugm-3
15-01-2012,13:00,25.00000,R,ugm-3,36.00000,R,ugm-3,75.00000,R,ugm-3